Voltar ao catálogo

STARLINK-30813

AtivoComunicaçõesVLEO
NORAD 58213·PAYLOAD·🇺🇸 United States

Lançado Nov 3, 2023 de Cape Canaveral Space Force Station

Loading…

Próximas Passagens (próximas 24 horas)

TLE

AtualizadoSource: CelesTrak SupGP

Época: Sep 15, 2026, 03:01 UTC

1 58213C 23170H   26258.12618056  .00005976  00000+0  21646-3 0  2580
2 58213  42.9995 204.2645 0001337 261.0272  68.9847 15.27574835    16

Acompanhe STARLINK-30813 em tempo real com AllMySat

Download on the App Store